CamptonHillsWeather.com

Find the Weather for any City, State  
or Zipcode, or Country:

Campton Hills, IL Weather
Local Radar

Local Radar

Graphs, Details
Graphs and Gauges
Detailed Weather
Detailed Reports
Ajax Version (old)
Central Kane Co Summary
Davis Current Weather Graphs
Davis 24 Hour Weather History

CW3778 Data

Weather Underground
Maps
Temperature
Heat Index
Windchill
Humidity
Radar
Dew Point
Wind
Visibility
Visible Satellite
Satellite
Fronts
Snow Depth
Jet Stream
Flight Rules
Forecast Maps
Temperature Forecast
Maximum Temperature Forecast
Minimum Temperature Forecast
Dewpoint Forecast
Prevalent Weather
12Hr Probability of Precip.
Sky Cover
Health Maps
UV Forecast
Air Quality
Peak Air Quality Index
Weather Station
Davis Instruments Vantage Pro
Current Conditions [Select Refresh to Update]

Updated: 10:13pm on 4/23/14

(location)
Currently:
41.1F

Clear
Overcast

High: 54.0 F< 
(3:07pm
Low: 31.3 F 
(6:24am)
Wind: ESE 7 mph
Light Breeze
Gust: 8 mph
Today's High Wind: 12 mph (8:24pm)
Humidity: 54%
Pressure: 30.08 in  (Steady
Pressure Rate: -0.014 in/hr
Dew Point: 25.7F
Wind Chill: 36.5 F
Heat Index (feels like): 42.3 F
Comfort Level: Cool
Temperature Rate:  -1.72F/hr
 
5 Day Forecast
 
Thu Fri Sat Sun Mon
Clear Clear Clear Clear Clear
Chance T-storms Partly Cloudy Partly Cloudy Partly Cloudy Chance Rain
64 66 54 63 68
43 39 36 37 37

Records and Normals
 
Temperature Forecast Normal Record
High 64 64 75
(2008)
Low 43 40 25
(2003)
 
Links
 
 
Weather Advisories
No Advisories
Full Advisory Text...
Weather Map

Web Cam

Almanac
 
Sunrise:  
5:59am
Moonrise: 
2:39am

Moon Phase:
30%

Sunset: 
7:42pm
Moonset:  
1:46pm
 Star Chart...
Rainfall Totals
Hourly Rain 0.00 in
Daily Rain: 0.00 in
Monthly Rain: 1.24 in
Yearly Rain: 4.86 in
Normal Rain, month to date: 1.12 in
Normal Rain, year to date: 2.79 in
Link to Village of Campton Hills Map

Link to Counties of Illinois Map

Local Weather Exchange Network
Station ID City 
(Click for Map Location)
Neighborhood 
(Click for History)
Last Update (Date & Time) Temperature
 ()
Dew
Point ()
Humidity 
(%)
Wind 
(mph)
from the Wind Gust 
(mph) 
Pressure(in) Hourly
Rain(in)
KILGENEV5 Geneva meso_neigh1 04/23 22:09:32 41.4 25.0 51 5 NW 7 30.01 0.00
KILSTCHA10 St. Charles Hunt Club 04/23 22:03:27 42.1 27.0 55 0 ENE 2 29.64 0.00
KILSOUTH6 South Elgin Thornwood 04/23 21:55:44 42.1 26.0 52 3 WSW 0 29.96 0.00
KILCAMPT3 Campton Hills Campton Hills 04/23 22:10:24 41.5 22.0 45 4 ENE 7 30.09 0.00
KILGENEV6 Geneva Dover Ridge 04/23 22:10:24 41.9 26.0 52 4 ESE 4 30.05 0.00
KILSTCHA8 St. Charles Ronzheimer Ave. & S. Tyler Rd. 04/23 20:03:59 45.0 26.0 48 5 ENE 13 30.09 0.00
KILGENEV3 Geneva Mill Creek (NE) 04/23 22:10:24 42.3 26.0 53 3 ENE 10 30.11 0.00
KILSTCHA1 St Charles CamptonHillsWeather.com Central Kane County 04/23 22:10:24 41.2 26.0 54 5 ESE 7 30.08 0.00
KILSOUTH5 South Elgin Concord Park 04/23 22:06:06 41.2 23.0 48 6 NE 0 29.83 0.00
KILGENEV2 Geneva Mill Creek 04/23 21:59:28 41.6 25.0 52 0 ENE 8 30.02 0.00
KILBATAV1 Batavia Tri-Cities on the Fox River 04/23 22:10:18 42.8 24.0 47 5 East 11 30.06 0.00
KILELBUR5 Elburn Prairie Highlands 04/23 22:10:16 42.1 29.0 59 4 East 9 30.07 0.00
KILBATAV3 Batavia West Batavia 04/23 22:06:24 41.9 28.0 57 6 ESE 0 30.05 0.00
KILELBUR6 Elburn Columbine Square 04/23 21:59:54 41.2 28.0 59 0 NNE 3 30.02 0.00
KILBATAV5 Batavia Fermi National Accelerator Laboratory 04/23 22:00:48 42.4 25.0 51 2 East 5 30.03 0.00
KILWESTC5 West Chicago THEBROWNHOUSE.ORG 04/23 22:10:21 40.2 17.0 39 0 ESE 0 30.04 0.00
KILWESTC8 West Chicago Ingalton Hills Estates 04/23 22:10:21 41.0 28.0 59 3 ESE 3 30.20 0.00
KILBARTL1 Bartlett Amber Grove KC9TVS 04/23 22:09:38 40.5 24.0 53 9 ESE 15 30.13 0.00
KILNORTH11 North Aurora Waterford Oaks 04/23 22:10:24 42.8 28.0 55 6 ENE 12 30.06 0.00
KILELGIN10 Elgin Wing Park 04/23 22:10:12 41.9 18.0 38 2 ESE 3 29.24 0.00
KILCAROL5 Carol Stream Stonehenge Court 04/23 22:10:04 41.7 -1.0 16 6 East 6 30.05 0.00
MUP431 West Chicago MesoWest WINFL1 IL US UPR 04/23 20:05:00 43.0 0.0 0 0 North 0 0.00 0.00
KILGILBE2 Gilberts Gilberts, IL 04/23 22:10:23 40.5 20.0 44 6 NE 9 29.64 0.00
KILELGIN11 Elgin Trout Park 04/23 22:10:22 39.7 21.0 46 5 SE 8 30.08 0.00
KILWINFI3 Winfield Fredericksburg Farm 04/23 22:10:23 41.3 24.0 51 4 NE 9 29.99 0.00
KILWINFI2 Winfield Winfield Heights (SarahNet) 04/23 22:05:27 41.9 25.0 51 2 ENE 5 30.07 0.00
KILSLEEP3 Sleepy Hollow SLEEPY HOLLOW 04/23 22:10:21 41.0 23.0 49 1 East 2 29.54 0.00
KILCAROL6 Carol Stream Merbach Ct 04/23 22:10:24 41.5 22.0 46 7 East 9 29.99 0.00
KILSLEEP2 Sleepy Hollow Sleepy Hollow Manor 04/23 22:07:38 40.6 26.0 55 4 East 0 29.99 0.00
KILWARRE2 Warrenville meso_neigh30 04/23 22:10:17 42.4 26.0 52 5 ESE 7 30.06 0.00
KILHANOV2 Hanover Park meso_neigh31 04/23 22:10:02 40.6 22.0 47 6 NE 9 30.09 0.00
KILWHEAT8 Wheaton Wheaton Sanitary District 04/23 22:03:05 43.5 27.0 53 3 ENE 8 30.08 0.00
KILWARRE4 Warrenville Cerny Park 04/23 22:10:09 43.0 26.0 51 2 SE 3 30.03 0.00
KILWHEAT5 Wheaton N9ABF - West Wheaton 04/23 22:05:16 42.4 25.0 50 5 East 0 30.03 0.00
KILSCHAU9 Schaumburg Schaumburg West 04/23 22:10:24 40.5 27.0 60 1 NE 6 30.09 0.00
KILEASTD2 East Dundee Rock Road Industrial Park 04/23 22:06:27 40.2 20.0 43 9 East 14 29.10 0.00
KILCARPE6 Carpentersville Carpentersville 04/23 22:10:12 40.8 27.0 57 4 East 4 29.18 0.00
KILNAPER19 Naperville Brookdale Lakes 04/23 22:10:25 42.5 27.0 54 2 East 6 30.02 0.00
KDPA Chicago DuPage Official Station 04/23 21:52:00 42.0 22.0 45 10 East --- 30.08 ---
KARR Aurora Official Station 04/23 21:52:00 43.0 27.0 53 8 ENE --- 30.08 ---
Full Advisory Text
No Warnings

Ambient Weather and Weather Underground
 Never base important decisions on this or any weather information obtained from the Internet
Updated Automatically by Ambient Weather's Virtual Weather Station  V13.01